Вернуться в каталог

ONEWEB-0505

АктивенСвязьPO
NORAD 54123·PAYLOAD·🇬🇧 United Kingdom

Запущен Oct 22, 2022 с Satish Dhawan Space Centre

Loading…

Ближайшие Пролёты (ближайшие 24 часа)

TLE

СвежийSource: CelesTrak SupGP

Эпоха: Sep 14, 2026, 14:41 UTC

1 54123C 22138L   26257.61231898 -.00001111  00000+0 -27791-2 0  2571
2 54123  87.9112 287.1550 0002199  83.0046  28.1775 13.19729875    18

Отслеживайте ONEWEB-0505 в реальном времени с AllMySat

Download on the App Store